Weather reports worldwide

Advertisment
Luqa, Malta (16597): temperature & dewpoint: 06.12.2019 11:00:00 - 12.12.2019 11:00:00 (CET)Luqa, Malta (16597): wind speed: 06.12.2019 11:00:00 - 12.12.2019 11:00:00 (CET)Luqa, Malta (16597): wind direction: 06.12.2019 11:00:00 - 12.12.2019 11:00:00 (CET)Luqa, Malta (16597): reduced air pressure: 06.12.2019 11:00:00 - 12.12.2019 11:00:00 (CET)Luqa, Malta (16597): visibility: 06.12.2019 11:00:00 - 12.12.2019 11:00:00 (CET)
Date & Time tt [°C] td [°C] ff [km/h] ff [kn] dd ppp [hPa] vv [km]
12.12.2019 11:00:00 13,0 12,0 9 5 W - 10
12.12.2019 10:00:00 13,1 12,1 26 14 WNW 1010,9 10
12.12.2019 09:00:00 13,0 11,0 15 8 NW - 10
12.12.2019 08:00:00 14,0 10,0 37 20 NW - 5
12.12.2019 07:00:00 13,3 7,9 13 7 NW 1010,4 10
12.12.2019 06:00:00 13,0 7,0 15 8 NW - 10
12.12.2019 05:00:00 12,0 6,0 15 8 NW - 10
12.12.2019 04:00:00 12,8 5,5 21 11 NW 1010,6 10
12.12.2019 03:00:00 12,0 6,0 21 11 NW - 10
12.12.2019 02:00:00 12,0 5,0 22 12 NNW - 10
12.12.2019 01:00:00 12,0 5,0 26 14 NNW 1011,3 10
12.12.2019 00:00:00 12,0 5,0 31 17 NNW - 10
11.12.2019 23:00:00 12,0 5,0 29 16 NNW - 10
11.12.2019 22:00:00 12,4 5,7 29 16 NNW 1011,1 10
11.12.2019 21:00:00 13,0 7,0 21 11 NNW - 10
11.12.2019 20:00:00 13,0 8,0 24 13 NW - 10
11.12.2019 19:00:00 13,5 8,3 34 18 NNW 1010,1 10
11.12.2019 18:00:00 14,0 9,0 37 20 NNW - 10
11.12.2019 17:00:00 14,0 9,0 28 15 NNW - 10
11.12.2019 16:00:00 14,5 8,0 22 12 NNW 1008,5 10
11.12.2019 15:00:00 16,0 7,0 29 16 NNW - 10
11.12.2019 14:00:00 16,0 8,0 28 15 N - 10
11.12.2019 13:00:00 16,3 9,1 34 18 N 1008,1 10
11.12.2019 12:00:00 16,0 10,0 35 19 N - 10
11.12.2019 11:00:00 15,0 9,0 21 11 N - 10
11.12.2019 10:00:00 14,2 9,4 18 10 N 1009,4 10
11.12.2019 09:00:00 13,0 8,0 18 10 N - 10
11.12.2019 08:00:00 13,0 8,0 16 9 N - 10
11.12.2019 07:00:00 12,2 8,3 15 8 N 1007,4 10
11.12.2019 06:00:00 11,0 8,0 9 5 NW - 10
11.12.2019 05:00:00 12,0 8,0 5 3 NNW - 10
11.12.2019 04:00:00 11,2 7,3 9 5 NNE 1006,7 10
11.12.2019 03:00:00 11,0 8,0 11 6 N - 10
11.12.2019 02:00:00 11,0 8,0 9 5 NNW - 10
11.12.2019 01:00:00 10,3 7,9 9 5 WNW 1007,3 10
11.12.2019 00:00:00 10,0 8,0 11 6 WNW - 10
10.12.2019 23:00:00 9,0 8,0 9 5 W - 10
10.12.2019 22:00:00 9,4 7,2 15 8 WNW 1007,9 10
10.12.2019 21:00:00 9,0 7,0 8 4 W - 10
10.12.2019 20:00:00 10,0 7,0 13 7 WSW - 10
10.12.2019 19:00:00 10,3 7,5 9 5 W 1008,8 9
10.12.2019 18:00:00 10,0 7,0 26 14 NNW - 9
10.12.2019 17:00:00 13,0 6,0 22 12 W - 9
10.12.2019 16:00:00 13,2 7,2 18 10 WNW 1007,9 10
10.12.2019 15:00:00 14,0 8,0 22 12 WNW - 10
10.12.2019 14:00:00 15,0 9,0 26 14 NW - 10
10.12.2019 13:00:00 15,6 8,6 29 16 WNW 1009,0 10
10.12.2019 12:00:00 15,0 10,0 34 18 NW - 10
10.12.2019 11:00:00 15,0 9,0 37 20 WNW - 10
10.12.2019 10:00:00 14,4 9,7 24 13 NW 1010,9 10
10.12.2019 09:00:00 15,0 10,0 22 12 NW - 10
10.12.2019 08:00:00 13,0 11,0 11 6 NW - 10
10.12.2019 07:00:00 12,9 10,1 15 8 N 1011,0 6
10.12.2019 06:00:00 14,0 9,0 29 16 WNW - 10
10.12.2019 05:00:00 14,0 10,0 22 12 NW - 10
10.12.2019 04:00:00 14,7 11,8 26 14 NNW 1011,3 10
10.12.2019 03:00:00 14,0 11,0 9 5 WNW - 10
10.12.2019 02:00:00 14,0 11,0 15 8 NW - 10
10.12.2019 01:00:00 13,7 11,9 13 7 NNW 1012,2 10
10.12.2019 00:00:00 14,0 12,0 15 8 NNW - 10
09.12.2019 23:00:00 14,0 13,0 21 11 NW - 10
09.12.2019 22:00:00 14,1 12,7 13 7 NW 1012,4 10
09.12.2019 21:00:00 14,0 12,0 13 7 NNW - 10
09.12.2019 20:00:00 14,0 12,0 21 11 NNW - 10
09.12.2019 19:00:00 14,2 11,8 9 5 NNW 1013,1 10
09.12.2019 18:00:00 15,0 12,0 15 8 NNW - 10
09.12.2019 17:00:00 15,0 11,0 16 9 N - 10
09.12.2019 16:00:00 16,5 13,7 18 10 N 1011,6 10
09.12.2019 15:00:00 17,0 15,0 18 10 NNE - 10
09.12.2019 14:00:00 16,0 15,0 24 13 ENE - 10
09.12.2019 13:00:00 15,3 14,8 26 14 NE 1011,7 9
09.12.2019 12:00:00 15,0 14,0 26 14 ENE - 4,0
09.12.2019 11:00:00 17,0 15,0 29 16 NE - 10
09.12.2019 10:00:00 17,3 16,4 28 15 NE 1011,6 10
09.12.2019 09:00:00 17,0 17,0 22 12 ENE - 10
09.12.2019 08:00:00 17,0 17,0 24 13 ENE - 10
09.12.2019 07:00:00 16,9 16,7 24 13 E 1012,0 10
09.12.2019 06:00:00 17,0 17,0 18 10 E - 10
09.12.2019 05:00:00 17,0 16,0 21 11 E - 10
09.12.2019 04:00:00 16,7 15,5 18 10 E 1014,1 10
09.12.2019 03:00:00 17,0 15,0 16 9 E - 10
09.12.2019 02:00:00 16,0 16,0 13 7 E - 10
09.12.2019 01:00:00 16,5 15,7 16 9 E 1016,4 10
09.12.2019 00:00:00 16,0 16,0 13 7 E - 10
08.12.2019 23:00:00 16,0 16,0 13 7 ESE - 10
08.12.2019 22:00:00 16,3 15,5 15 8 E 1018,0 10
08.12.2019 21:00:00 16,0 15,0 15 8 ESE - 10
08.12.2019 20:00:00 16,0 14,0 11 6 ESE - 10
08.12.2019 19:00:00 15,8 14,2 11 6 ESE 1019,2 10
08.12.2019 18:00:00 16,0 13,0 9 5 SE - 10
08.12.2019 17:00:00 16,0 13,0 8 4 E - 10
08.12.2019 16:00:00 16,8 12,6 9 5 SE 1020,0 10
08.12.2019 15:00:00 17,0 12,0 11 6 ESE - 10
08.12.2019 14:00:00 18,0 13,0 13 7 ESE - 10
08.12.2019 13:00:00 18,8 14,2 8 4 ESE 1020,7 10
08.12.2019 12:00:00 19,0 14,0 5 3 ENE - 10
08.12.2019 11:00:00 19,0 14,0 8 4 ENE - 10
08.12.2019 10:00:00 18,3 18,2 8 4 NE 1023,1 10
08.12.2019 09:00:00 16,0 16,0 2 1 - - 10
08.12.2019 08:00:00 13,0 12,0 2 1 W - 10
08.12.2019 07:00:00 11,4 11,4 2 1 ENE 1022,0 10
08.12.2019 06:00:00 12,0 12,0 4 2 NNW - 10
08.12.2019 05:00:00 12,0 12,0 5 3 WNW - 10
08.12.2019 04:00:00 12,3 12,2 5 3 NW 1021,8 10
08.12.2019 03:00:00 12,0 12,0 5 3 WNW - 10
08.12.2019 02:00:00 12,0 12,0 4 2 NNW - 10
08.12.2019 01:00:00 12,4 12,3 4 2 W 1022,5 10
08.12.2019 00:00:00 12,0 12,0 4 2 NW - 10
07.12.2019 23:00:00 12,0 12,0 5 3 NNW - 10
07.12.2019 22:00:00 12,6 12,1 2 1 NW 1023,2 10
07.12.2019 21:00:00 13,0 12,0 5 3 NW - 10
07.12.2019 20:00:00 14,0 13,0 5 3 NW - 10
07.12.2019 19:00:00 14,5 12,9 2 1 W 1023,1 10
07.12.2019 18:00:00 15,0 13,0 4 2 - - 10
07.12.2019 17:00:00 16,0 13,0 5 3 W - 10
07.12.2019 16:00:00 18,6 13,6 8 4 SW 1021,6 10
07.12.2019 15:00:00 19,0 14,0 9 5 WSW - 10
07.12.2019 14:00:00 20,0 15,0 9 5 E - 10
07.12.2019 13:00:00 20,5 13,4 9 5 SW 1022,5 10
07.12.2019 12:00:00 20,0 14,0 5 3 NNE - 10
07.12.2019 11:00:00 20,0 15,0 5 3 N - 10
07.12.2019 10:00:00 18,6 15,8 8 4 NNW 1024,3 10
07.12.2019 09:00:00 18,0 16,0 5 3 W - 10
07.12.2019 08:00:00 14,0 14,0 9 5 W - 10
07.12.2019 07:00:00 13,5 13,0 8 4 WNW 1023,7 10
07.12.2019 06:00:00 12,0 12,0 8 4 W - 10
07.12.2019 05:00:00 13,0 12,0 4 2 WNW - 10
07.12.2019 04:00:00 14,2 12,8 9 5 W 1022,9 10
07.12.2019 03:00:00 14,0 12,0 9 5 W - 10
07.12.2019 02:00:00 14,0 12,0 8 4 WNW - 10
07.12.2019 01:00:00 14,6 12,6 11 6 WNW 1023,7 10
07.12.2019 00:00:00 15,0 13,0 9 5 WNW - 10
06.12.2019 23:00:00 14,0 13,0 9 5 W - 10
06.12.2019 22:00:00 14,9 13,3 9 5 W 1024,2 10
06.12.2019 21:00:00 15,0 13,0 9 5 W - 10
06.12.2019 20:00:00 15,0 14,0 9 5 W - 10
06.12.2019 19:00:00 15,5 13,8 11 6 WNW 1024,0 10
06.12.2019 18:00:00 16,0 14,0 9 5 W - 10
06.12.2019 17:00:00 17,0 14,0 8 4 W - 10
06.12.2019 16:00:00 18,8 14,9 11 6 NW 1023,2 10
06.12.2019 15:00:00 19,0 14,0 11 6 W - 10
06.12.2019 14:00:00 20,0 14,0 9 5 WNW - 10
06.12.2019 13:00:00 19,5 14,2 15 8 WNW 1023,9 10
06.12.2019 12:00:00 20,0 15,0 13 7 W - 10
06.12.2019 11:00:00 20,0 15,0 11 6 WNW - 10

tt = temperature
td = dewpoint
ff = wind speed
dd = wind direction
ppp = reduced air pressure
vv = visibility

Next stations